Theta_e
307 305 305 305 305 303 302 304 303 303 303 304 303 302 301 304 305 305 307 308 308 309 310 312 312 314 316 318 321 322 324 324 324 325 325 324 325 324 323 322 321 321 320 314
306 307 305 304 305 306 306 306 305 305 305 305 304 303 302 301 302 305 306 308 307 308 309 310 312 312 314 317 320 321 322 324 323 324 324 324 325 324 323 322 321 321 321 319
305 305 305 305 305 305 305 305 305 306 305 305 303 304 304 302 303 305 305 306 306 306 307 309 311 311 312 317 319 319 318 320 323 323 324 324 324 324 323 321 321 321 321 320
304 304 304 304 306 305 305 304 305 305 305 305 303 302 301 302 301 302 304 305 305 306 306 307 309 311 312 317 317 318 317 318 320 323 322 323 323 323 323 323 321 321 321 320
304 302 303 305 303 303 303 302 304 304 302 302 301 300 300 300 301 302 302 303 305 306 306 306 307 308 311 314 317 318 318 319 319 322 322 323 323 323 321 321 321 322 322 321
303 303 303 302 302 302 302 302 302 302 301 302 302 301 301 300 301 301 303 303 305 305 307 307 307 307 308 310 314 317 319 318 318 319 322 322 324 323 321 322 321 321 322 321
302 303 303 303 303 303 303 302 303 302 301 302 299 300 301 300 300 301 301 303 305 305 307 307 307 308 308 308 311 316 319 318 317 318 319 322 323 322 320 322 321 321 321 321
299 303 297 296 303 302 302 302 303 302 301 300 299 300 300 301 302 303 303 303 305 306 307 307 307 307 309 308 310 310 315 318 317 317 318 319 323 322 321 321 321 319 321 321
297 297 295 296 296 298 303 302 302 302 301 300 299 299 300 301 301 301 301 304 305 306 306 306 306 306 308 309 310 311 313 315 316 316 316 318 320 321 319 320 321 320 319 319
295 294 294 295 296 298 302 303 304 303 304 303 300 300 300 300 300 300 300 301 305 306 306 306 307 307 308 308 308 309 313 313 314 316 316 316 317 320 321 320 320 321 319 319
293 294 294 296 298 294 294 299 305 303 303 303 303 302 301 300 301 301 300 302 304 304 307 308 309 308 309 310 310 310 313 315 316 316 316 316 318 317 321 319 319 319 319 318
296 296 294 294 293 293 294 297 299 301 302 303 303 303 302 302 302 301 302 303 306 307 307 306 307 307 307 308 309 310 312 315 316 316 317 317 317 317 318 318 317 318 318 318
293 288 285 290 290 296 298 298 298 296 298 301 303 302 302 300 300 302 301 302 304 306 306 307 306 306 305 305 306 307 310 314 316 317 317 317 317 317 317 316 317 318 317 316
295 291 290 291 292 292 293 293 295 296 297 298 299 298 297 298 299 299 299 301 302 304 305 306 307 307 305 305 305 306 307 309 314 316 317 318 317 317 317 317 316 316 316 316
292 289 294 294 293 294 294 295 295 295 296 297 296 297 297 297 298 299 299 300 301 302 303 305 306 306 305 305 305 306 306 307 309 313 316 316 316 317 316 314 314 314 314 315
294 291 295 291 295 295 295 295 294 294 295 296 298 298 298 298 298 297 299 300 300 302 303 305 306 305 305 305 305 306 305 305 306 307 308 311 315 315 316 314 314 314 314 314
293 289 287 291 293 293 287 292 293 293 293 294 294 295 295 295 296 298 300 300 301 302 302 303 303 304 305 305 305 304 304 305 304 305 306 307 311 313 314 315 313 312 312 313
293 289 289 289 286 288 292 291 292 292 292 293 294 294 295 295 297 297 297 300 301 301 302 303 303 304 304 304 304 304 304 304 304 304 306 306 306 309 312 313 313 311 311 311
294 294 293 294 281 291 292 292 292 292 292 294 294 295 295 296 297 299 298 300 302 302 303 304 303 303 304 304 304 304 304 304 304 304 305 305 305 306 307 310 312 310 309 310
294 294 294 288 289 286 292 292 292 292 293 294 294 295 297 297 300 301 301 301 301 302 302 303 303 303 303 303 303 303 304 304 303 304 305 305 305 305 305 306 308 310 308 308
290 293 294 294 293 291 292 292 293 292 293 295 295 295 295 295 296 297 299 299 301 302 302 303 303 303 303 304 304 303 303 303 303 303 304 305 305 305 305 305 306 307 307 307
289 288 290 289 292 292 293 293 293 293 295 295 294 294 294 295 296 298 299 300 300 300 301 302 303 303 303 303 303 303 303 303 303 303 304 304 304 304 304 304 304 305 305 305
291 291 290 291 291 292 294 294 294 294 294 294 294 293 294 296 297 297 297 296 297 299 300 301 302 303 303 303 303 303 302 302 303 303 303 304 304 304 304 304 303 303 303 303
291 291 292 293 293 292 293 294 294 293 294 294 293 294 294 294 295 295 294 295 295 299 299 300 302 302 301 302 302 302 302 302 302 302 303 303 304 304 304 303 303 302 302 301
291 291 292 292 293 293 293 293 293 293 293 293 293 293 293 293 293 293 294 294 294 296 298 300 301 303 302 301 300 300 301 301 301 302 303 303 303 303 302 301 301 301 301 302
291 293 293 293 293 293 293 293 293 292 292 293 293 292 292 292 292 294 293 293 295 297 300 300 301 303 303 302 301 300 301 301 302 302 303 303 302 301 301 300 299 299 299 300
Wind_Speed
11 5 11 17 19 13 8 10 10 5 8 6 12 12 9 12 15 14 21 26 28 28 20 25 34 41 43 44 43 39 40 42 45 49 47 45 46 46 43 41 37 31 28 27
3 18 13 8 13 14 14 15 19 14 12 10 11 16 9 8 10 22 26 30 32 29 31 28 26 34 45 48 46 42 42 42 46 50 51 48 46 45 48 44 40 36 32 29
14 8 14 13 15 16 16 17 13 13 6 6 8 22 16 9 13 26 31 37 40 40 39 32 34 36 36 52 50 46 42 43 46 48 52 48 43 46 48 46 45 43 38 34
14 15 16 12 16 13 16 7 12 14 9 8 4 12 9 4 10 13 26 33 39 41 43 43 37 39 34 47 52 49 45 44 45 48 52 52 53 55 54 54 51 48 43 39
7 6 7 16 19 9 10 5 10 7 4 2 8 5 5 7 12 17 15 29 39 40 41 46 48 46 37 40 47 51 49 46 44 48 51 52 53 55 48 51 55 53 48 45
19 24 10 0 8 6 6 6 2 3 2 5 22 9 17 11 13 13 19 24 25 28 33 35 39 42 44 35 44 52 53 50 47 48 51 52 55 55 53 53 55 57 53 49
12 24 23 15 13 17 8 2 5 3 5 15 10 8 24 7 8 6 9 21 22 24 13 12 15 33 45 43 41 49 55 54 51 49 52 52 55 53 53 55 56 57 58 55
7 4 8 13 10 14 16 11 8 9 8 14 10 10 17 14 24 35 34 30 30 24 21 16 18 20 26 43 41 47 51 55 53 51 51 53 53 51 50 53 53 54 58 57
2 4 9 7 6 4 4 14 14 12 15 9 5 13 15 11 13 11 16 24 27 34 32 30 29 25 23 30 36 37 50 54 56 53 50 53 52 53 53 53 53 53 53 54
6 4 4 5 7 6 6 4 11 9 14 20 8 11 13 5 9 8 8 12 31 32 36 33 31 26 24 27 27 32 42 47 52 54 52 51 53 54 55 53 51 52 53 52
5 4 4 5 3 11 7 5 5 6 11 12 14 11 15 12 15 18 15 18 32 29 17 18 20 19 21 22 25 30 35 46 51 52 51 50 52 50 53 54 52 49 48 51
8 3 3 9 16 13 13 5 1 5 5 8 16 16 8 12 16 11 22 26 20 19 16 11 12 15 19 22 23 26 30 36 43 47 49 49 48 48 49 52 55 52 49 48
5 2 2 8 6 3 4 4 5 3 8 9 7 8 13 6 8 22 13 23 27 12 5 5 2 3 4 5 12 25 28 30 36 42 45 46 46 47 47 49 50 53 52 49
13 4 7 7 9 3 6 11 10 6 6 14 11 18 27 15 14 20 33 30 30 23 26 26 19 13 7 11 12 11 22 29 29 33 38 43 44 45 46 46 48 50 51 51
7 7 7 13 16 14 13 17 17 12 17 15 21 19 29 22 17 16 38 34 32 33 36 32 26 19 12 12 13 13 12 18 27 31 33 38 40 41 42 43 44 46 49 50
7 7 7 10 13 11 15 16 20 22 18 18 20 22 26 25 28 22 25 40 29 36 35 23 19 19 16 12 12 12 12 11 16 23 28 33 37 38 40 42 43 44 46 47
6 6 3 12 4 1 7 23 16 17 18 16 17 19 25 24 22 20 21 30 39 34 36 29 28 26 21 18 19 21 23 21 21 21 23 26 33 37 38 41 41 43 44 46
4 6 4 5 4 2 18 9 12 16 20 19 19 19 25 25 30 33 33 34 41 44 40 39 33 30 26 26 27 27 26 25 25 25 24 24 27 32 36 38 41 41 43 46
14 8 4 6 6 10 19 18 5 6 18 18 18 20 22 32 34 28 37 38 39 47 49 36 35 32 31 32 31 32 31 29 27 29 28 26 25 28 32 37 41 41 42 44
15 13 9 3 6 9 23 18 10 5 11 28 10 12 14 22 14 12 32 38 38 38 43 45 40 43 45 43 38 34 33 33 33 31 30 27 26 27 30 33 37 41 41 43
5 7 16 14 12 8 13 14 3 5 19 11 20 20 16 12 16 39 42 39 44 33 30 38 34 34 33 30 33 33 33 37 36 31 30 29 28 28 28 29 33 36 39 40
8 7 7 6 8 14 12 12 10 11 16 23 23 24 22 29 29 31 30 32 35 36 28 31 37 38 34 30 33 33 34 32 30 30 31 31 29 28 28 28 30 33 35 38
6 9 7 10 7 6 14 14 21 20 20 35 29 26 24 28 26 33 29 40 41 39 38 34 29 29 29 27 29 32 33 29 29 29 31 30 28 28 27 28 30 32 34 37
5 4 7 14 16 15 26 38 39 23 27 41 43 28 31 30 27 37 35 35 41 42 42 38 27 23 22 23 25 27 24 24 26 27 28 29 29 28 28 28 29 32 35 37
5 4 8 7 13 16 27 39 42 30 28 30 43 38 36 34 35 36 40 41 47 43 42 33 26 22 18 19 23 25 26 27 26 25 27 29 27 26 28 28 28 30 32 35
5 12 7 12 19 19 26 40 33 29 30 35 39 42 48 39 33 33 45 49 45 43 36 31 25 21 16 16 18 20 22 23 23 25 28 28 26 26 27 28 27 27 29 31
Wind_Direction
194 201 211 203 204 229 241 256 256 257 283 302 279 277 263 264 254 253 260 266 270 266 264 242 236 231 230 223 221 224 224 223 217 217 216 218 217 221 221 226 226 226 231 222
182 233 225 232 227 236 239 247 256 277 274 271 282 277 270 245 250 264 262 264 271 276 266 256 247 239 227 222 220 222 226 224 219 219 220 222 220 224 224 224 228 227 232 228
227 215 210 217 230 236 238 240 255 258 273 274 314 288 281 253 248 263 260 260 261 261 260 255 246 247 236 220 220 222 227 227 223 219 218 219 221 219 220 223 228 228 230 232
246 245 248 245 234 226 251 257 270 268 260 263 166 279 238 250 248 246 252 252 251 250 250 248 243 246 230 225 224 225 228 228 226 220 216 214 216 217 223 227 225 229 229 230
231 338 237 228 239 248 265 277 252 249 231 235 242 261 287 235 259 254 257 249 254 254 252 250 247 245 244 228 226 227 227 228 228 222 219 214 216 220 223 220 227 229 230 229
258 273 287 344 320 318 347 257 296 281 175 245 241 210 270 236 250 239 247 252 261 266 261 254 249 242 246 242 231 228 224 228 229 228 224 220 219 222 217 219 225 229 229 228
279 248 257 265 289 286 293 267 240 251 206 243 155 203 246 247 219 220 257 266 275 295 277 276 262 252 243 239 233 230 225 225 228 230 230 223 223 222 219 222 229 228 230 229
348 11 358 356 243 251 231 215 216 214 224 260 159 219 237 220 234 261 269 269 290 289 285 274 277 276 252 236 234 234 232 227 229 231 232 229 224 219 220 223 229 233 234 236
300 277 326 322 304 310 260 227 235 265 271 280 229 273 281 263 262 258 261 269 270 278 276 274 279 274 258 239 234 236 234 231 231 233 233 232 226 222 223 223 229 237 236 236
208 261 264 306 303 296 232 293 238 225 246 240 235 248 252 298 276 299 295 266 268 279 280 276 274 268 252 255 254 248 241 236 235 233 234 233 232 227 224 223 225 233 239 239
158 179 295 345 20 304 314 323 249 232 229 245 255 252 247 252 256 278 290 311 307 285 280 265 263 254 247 241 242 244 241 234 232 232 233 233 233 228 226 224 224 229 232 240
204 197 241 235 272 253 237 285 292 335 344 270 242 252 255 316 304 286 293 297 299 256 259 261 250 249 248 245 240 237 240 236 234 236 235 236 235 231 228 227 227 228 231 233
193 240 10 320 323 81 117 185 207 224 277 292 307 261 274 302 284 291 309 310 279 240 217 224 196 124 86 352 257 239 238 240 239 237 237 238 236 234 228 228 227 229 231 232
155 193 172 225 250 336 303 291 302 296 275 298 288 293 293 306 314 316 309 312 320 284 299 268 245 248 261 326 309 265 237 237 237 239 239 240 240 237 230 229 229 229 230 231
148 209 203 237 256 274 281 291 294 282 270 258 275 273 276 282 283 282 291 292 294 299 288 265 239 235 262 293 300 287 256 235 235 235 237 242 244 240 233 229 231 231 232 232
185 237 196 256 248 273 283 280 275 271 266 256 257 266 275 278 282 276 261 281 280 281 286 282 258 255 259 276 285 275 267 268 252 240 238 238 241 240 233 229 232 231 231 232
182 176 125 257 133 312 311 243 260 267 269 270 274 272 282 286 276 273 269 263 273 271 276 276 282 272 274 280 280 274 275 271 267 254 242 237 236 238 236 228 229 231 231 231
211 159 162 257 67 240 260 268 240 250 265 272 268 271 269 273 286 284 285 274 265 265 262 270 275 270 277 281 282 286 278 265 264 255 248 239 236 236 236 230 228 230 230 230
218 205 210 216 198 269 292 271 188 251 281 283 265 275 286 294 296 301 283 268 261 259 262 261 276 277 276 276 279 279 271 266 263 255 249 244 240 237 235 232 227 228 230 230
208 209 202 173 191 211 254 274 207 240 286 270 307 325 345 342 321 309 317 315 308 275 266 262 268 267 267 268 278 270 261 261 262 256 250 248 245 242 238 235 229 227 229 231
157 202 224 227 235 256 256 271 123 233 255 354 323 323 312 295 287 294 300 306 317 282 280 266 273 275 271 267 265 262 259 255 258 260 249 247 247 245 241 237 233 231 231 230
165 162 201 222 233 250 240 267 223 247 315 305 299 302 304 299 292 299 306 312 313 317 316 304 280 270 267 265 256 255 254 256 253 250 246 244 244 242 238 235 234 231 231 231
226 201 205 186 210 227 227 230 254 278 286 289 288 294 295 299 300 304 308 308 307 315 314 310 290 274 264 253 246 249 255 249 245 243 243 241 238 236 236 233 229 226 225 226
251 213 228 250 249 256 266 274 277 276 276 285 289 283 298 295 293 294 299 302 304 310 311 309 295 279 270 252 247 247 242 244 246 245 239 233 229 228 229 230 229 226 223 221
209 161 221 254 258 268 266 265 271 278 278 285 287 290 290 290 291 290 292 302 305 299 301 303 287 285 278 267 252 246 242 239 240 236 229 227 229 226 223 227 227 225 227 227
179 240 237 251 256 251 263 270 281 284 282 279 283 288 289 285 279 283 292 298 298 294 299 295 278 284 284 274 263 248 240 234 229 226 222 224 223 219 220 220 218 223 229 227